Powrót do katalogu

INTELSAT 33E DEB

LostMEO
NORAD 64401·DEBRIS· XX

Wystrzelony Aug 24, 2016 z Guiana Space Centre

Loading…

Następne Przeloty (najbliższe 24 godziny)

TLE

NieaktualneSource: Space-Track

Epoka: Jul 26, 2026, 14:52 UTC

1 64401U 16053AF  26207.61973246 -.00000187  00000-0  00000-0 0  9992
2 64401   1.5628  71.4430 0671253 344.5134  13.3663  1.05820814  6722

Śledź INTELSAT 33E DEB w czasie rzeczywistym z AllMySat

Download on the App Store